[[{"header":{"parameterUnit":"m.s-1","parameterCategory":1,"la1":30.2991,"la2":30.254,"lo1":-89.0895,"lo2":-89.0444,"dy":0.0017,"dx":0.0017,"nx":28,"ny":28,"refTime":"2024-03-21T03:00:00:Z","depth":0,"parameterNumber":2,"parameterNumberName":"U-component_of_WINDS"},"data":[0,0,0,0,0,0,0,0,0,0,0,0,0,0,0,0,0,0,0,0,0,0,0,0,0,0,0,0,0,0,0,0,0,0,0,0,0,0,0,0,0,0,0,0,0,0,0,0,0,0,0,0,0,0,0,0,0,0,-3.3269,-3.3272,0,-3.356,-3.3563,-3.3566,-3.3647,-3.3645,-3.3644,-3.3642,-3.3945,-3.3955,-3.3964,0,0,0,0,0,0,0,0,0,0,0,0,0,-3.2788,-3.2797,-3.3268,-3.3272,-3.3275,-3.3559,-3.3563,-3.3567,-3.3647,-3.3645,-3.3643,-3.3641,-3.3942,-3.3954,-3.3965,0,0,0,0,0,0,0,0,0,0,0,0,0,-3.303,-3.2799,-3.3268,-3.335,-3.336,-3.3558,-3.3563,-3.3568,-3.3648,-3.3645,-3.3643,-3.364,-3.3938,-3.3952,-3.3967,-3.4106,0,0,-3.4011,-3.4017,0,0,0,0,0,0,0,0,-3.3016,-3.3047,-3.3334,-3.3344,-3.3356,-3.3564,-3.3505,-3.3749,-3.3648,-3.3539,-3.3642,-3.3639,-3.3821,-3.3845,-3.3905,-3.412,-3.4133,-3.4012,-3.4021,-3.4027,-3.4031,0,0,0,0,0,0,0,-3.2999,-3.3035,-3.3384,-3.3338,-3.3352,-3.3374,-3.3406,-3.3552,-3.369,-3.3548,-3.3554,-3.3587,-3.3827,-3.3891,-3.3913,-3.4138,-3.4012,-3.4025,-3.4033,-3.4039,-3.4484,-3.4487,0,0,0,0,0,0,-3.2968,-3.3021,-3.3374,-3.3392,-3.3176,-3.3385,-3.342,-3.35,-3.3689,-3.3715,-3.3589,-3.359,-3.3868,-3.3896,-3.3924,-3.41,-3.4027,-3.4041,-3.4049,-3.4481,-3.4485,-3.4488,0,0,0,0,0,0,-3.2957,-3.2998,-3.3363,-3.3209,-3.3257,-3.3396,-3.3485,-3.3507,-3.3571,-3.372,-3.3746,-3.3629,-3.3867,-3.3903,-3.406,-3.4111,-3.4047,-3.406,-3.4477,-3.4482,-3.4486,-3.4452,0,0,0,0,0,0,-3.2943,-3.2994,-3.3046,-3.3209,-3.3264,-3.3492,-3.3488,-3.3515,-3.3596,-3.3599,-3.3764,-3.3789,-3.3868,-3.4038,-3.4074,-3.413,-3.4071,-3.4473,-3.4479,-3.4485,-3.4449,-3.4455,-3.446,0,0,0,0,0,-3.2925,-3.3026,-3.3049,-3.3091,-3.3333,-3.3494,-3.3526,-3.3613,-3.3599,-3.3654,-3.375,-3.3784,-3.41,-3.4053,-3.4095,-3.4156,-3.447,-3.4477,-3.4484,-3.4446,-3.4453,-3.4459,0,0,0,0,0,0,-3.2867,-3.3049,-3.3076,-3.3232,-3.3347,-3.3508,-3.3579,-3.3617,-3.374,-3.3738,-3.3842,-3.3879,-3.4029,-3.4109,-3.4053,-3.4302,-3.4286,-3.4302,-3.4243,-3.4251,-3.4256,-3.4233,-3.4083,0,0,0,0,0,-3.2872,-3.2986,-3.314,-3.3263,-3.3319,-3.3439,-3.3513,-3.357,-3.3694,-3.3743,-3.3851,-3.3971,-3.4099,-3.418,-3.4305,-3.4462,-3.45,-3.4525,-3.453,-3.4533,-3.4545,-3.4636,-3.4649,-3.4511,-3.4511,-3.4511,0,0,-3.2884,-3.2998,-3.3064,-3.3254,-3.335,-3.3468,-3.348,-3.3604,-3.3693,-3.3763,-3.3916,-3.4,-3.4142,-3.4299,-3.4374,-3.4371,-3.4592,-3.4542,-3.4544,-3.4555,-3.4644,-3.4657,-3.4668,-3.4516,-3.4515,-3.4514,0,0,-3.2966,-3.3063,-3.3176,-3.3272,-3.3416,-3.3496,-3.3523,-3.3679,-3.3737,-3.3893,-3.3948,-3.4057,-3.4273,-3.4372,-3.4451,-3.4572,-3.4608,-3.4611,-3.4638,-3.4725,-3.4736,-3.4746,-3.4789,-3.4803,-3.4623,-3.4622,-3.4622,0,-3.2963,-3.314,-3.323,-3.3351,-3.3434,-3.3502,-3.3619,-3.3708,-3.3887,-3.3943,-3.3937,-3.421,-3.4311,-3.4492,-3.4522,-3.4584,-3.4619,-3.4591,-3.4726,-3.4738,-3.4748,-3.4791,-3.4807,-3.4622,-3.4622,-3.4622,-3.4622,0,-3.3129,-3.3252,-3.3327,-3.3495,-3.3587,-3.3705,-3.3815,-3.3897,-3.3947,-3.4028,-3.4187,-3.4311,-3.4462,-3.451,-3.456,-3.47,-3.4693,-3.4705,-3.4692,-3.4759,-3.4801,-3.4818,-3.4621,-3.4621,-3.4621,-3.4621,0,0,-3.318,-3.3398,-3.3423,-3.3501,-3.3667,-3.3765,-3.3888,-3.4034,-3.4103,-3.4225,-3.4332,-3.4514,-3.4526,-3.4616,-3.4678,-3.4755,-3.4844,-3.4758,-3.4763,-3.4769,-3.5006,-3.4994,-3.5012,-3.4869,-3.4873,-3.4876,-3.4994,0,-3.3282,-3.35,-3.3585,-3.3764,-3.3879,-3.3948,-3.4055,-3.417,-3.4249,-3.4361,-3.4451,-3.4577,-3.4585,-3.4639,-3.4718,-3.4815,-3.4892,-3.4809,-3.497,-3.4975,-3.493,-3.5034,-3.5022,-3.5127,-3.5011,-3.5014,-3.5016,0,-3.3428,-3.355,-3.3739,-3.3892,-3.3944,-3.4038,-3.418,-3.4285,-3.4418,-3.4471,-3.4571,-3.463,-3.4763,-3.4743,-3.4929,-3.4871,-3.4943,-3.5001,-3.5008,-3.5025,-3.4998,-3.5053,-3.5163,-3.5178,-3.5043,-3.504,-3.5038,0,-3.3445,-3.3657,-3.3797,-3.3862,-3.4044,-3.4109,-3.4188,-3.4318,-3.4401,-3.4527,-3.4582,-3.4722,-3.4799,-3.4907,-3.5003,-3.4979,-3.5181,-3.5168,-3.523,-3.5227,-3.5267,-3.5263,-3.5389,-3.5316,-3.5316,-3.5316,-3.5315,0,-3.3548,-3.3661,-3.3807,-3.3894,-3.4024,-3.4122,-3.4249,-3.4334,-3.4449,-3.4555,-3.4624,-3.4723,-3.4844,-3.4959,-3.5035,-3.5179,-3.5213,-3.5261,-3.528,-3.5254,-3.5248,-3.5301,-3.5296,-3.532,-3.5319,-3.5318,-3.5317,0,-3.3587,-3.369,-3.3848,-3.4007,-3.405,-3.4138,-3.4276,-3.4364,-3.4448,-3.4581,-3.4619,-3.4751,-3.489,-3.4997,-3.5179,-3.523,-3.5382,-3.5403,-3.5336,-3.5345,-3.54,-3.5393,-3.5564,-3.5592,-3.55,-3.5501,-3.5501,0,-3.3645,-3.3734,-3.3903,-3.3977,-3.4055,-3.4176,-3.4261,-3.4363,-3.4449,-3.4608,-3.4677,-3.4821,-3.4941,-3.516,-3.5274,-3.5414,-3.5438,-3.5489,-3.546,-3.5431,-3.5438,-3.5431,-3.5441,-3.5491,-3.5492,-3.5492,-3.5493,0,-3.3738,-3.3784,-3.3903,-3.404,-3.4139,-3.4252,-3.4367,-3.4425,-3.4549,-3.4643,-3.4784,-3.4877,-3.5063,-3.5205,-3.5356,-3.5441,-3.5488,-3.5501,-3.5523,-3.5496,-3.5454,-3.5477,-3.5344,-3.5496,-3.5496,-3.5496,-3.5495,-3.5495,-3.3788,-3.387,-3.4001,-3.4132,-3.4229,-3.4335,-3.4425,-3.4521,-3.464,-3.4796,-3.4851,-3.4998,-3.5131,-3.5339,-3.5426,-3.5544,-3.5545,-3.5577,-3.5584,-3.559,-3.5587,-3.5436,-3.5572,-3.5572,-3.5572,-3.5572,-3.5572,0,-3.3883,-3.3971,-3.409,-3.4248,-3.4351,-3.4385,-3.4515,-3.46,-3.4727,-3.4846,-3.4963,-3.5127,-3.5266,-3.5392,-3.5537,-3.5608,-3.5633,-3.5642,-3.5637,-3.5656,-3.5578,-3.5544,-3.5619,-3.5619,-3.5619,-3.5619,-3.5619,-3.5619,-3.3945,-3.4085,-3.4147,-3.4338,-3.4427,-3.4568,-3.464,-3.4739,-3.4835,-3.5014,-3.5129,-3.5209,-3.5333,-3.5488,-3.5618,-3.5652,-3.5702,-3.5705,-3.5744,-3.5668,-3.5662,-3.5656,-3.5625,-3.5716,-3.5716,-3.5813,-3.5814,-3.5815]},{"header":{"parameterUnit":"m.s-1","parameterCategory":1,"la1":30.2991,"la2":30.254,"lo1":-89.0895,"lo2":-89.0444,"dy":0.0017,"dx":0.0017,"nx":28,"ny":28,"refTime":"2024-03-21T03:00:00:Z","depth":0,"parameterNumber":3,"parameterNumberName":"V-component_of_WINDS"},"data":[0,0,0,0,0,0,0,0,0,0,0,0,0,0,0,0,0,0,0,0,0,0,0,0,0,0,0,0,0,0,0,0,0,0,0,0,0,0,0,0,0,0,0,0,0,0,0,0,0,0,0,0,0,0,0,0,0,0,2.4628,2.4628,0,2.4631,2.4631,2.4631,2.4618,2.4618,2.4617,2.4617,2.4619,2.462,2.462,0,0,0,0,0,0,0,0,0,0,0,0,0,2.461,2.461,2.4628,2.4628,2.4628,2.4631,2.4631,2.4631,2.4618,2.4618,2.4617,2.4617,2.4619,2.462,2.462,0,0,0,0,0,0,0,0,0,0,0,0,0,2.4616,2.461,2.4628,2.4622,2.4621,2.4631,2.4631,2.4631,2.4618,2.4618,2.4617,2.4616,2.4619,2.4619,2.462,2.4636,0,0,2.4622,2.4622,0,0,0,0,0,0,0,0,2.4615,2.4616,2.4623,2.4622,2.4622,2.4624,2.4626,2.4633,2.4618,2.4619,2.4617,2.4616,2.4621,2.4621,2.4623,2.4636,2.4636,2.4622,2.4623,2.4623,2.4623,0,0,0,0,0,0,0,2.4615,2.4616,2.4629,2.4623,2.4622,2.4619,2.4619,2.4627,2.4623,2.4619,2.4618,2.4619,2.4621,2.4623,2.4623,2.4636,2.4622,2.4623,2.4623,2.4623,2.4664,2.4664,0,0,0,0,0,0,2.4616,2.4616,2.4629,2.4629,2.4617,2.462,2.462,2.4624,2.4623,2.4623,2.4619,2.4618,2.4622,2.4623,2.4623,2.4643,2.4623,2.4623,2.4624,2.4663,2.4664,2.4665,0,0,0,0,0,0,2.4615,2.4617,2.4629,2.4622,2.4624,2.4621,2.4625,2.4624,2.4626,2.4623,2.4623,2.4622,2.4622,2.4622,2.4633,2.4643,2.4624,2.4624,2.4662,2.4663,2.4664,2.4682,0,0,0,0,0,0,2.4615,2.4617,2.4623,2.4623,2.4624,2.4639,2.4625,2.4624,2.4627,2.4626,2.4626,2.4625,2.4621,2.4633,2.4634,2.4644,2.4625,2.4661,2.4663,2.4664,2.4681,2.4684,2.4686,0,0,0,0,0,2.4614,2.4627,2.4623,2.4625,2.4632,2.464,2.464,2.4636,2.4628,2.4634,2.4633,2.4625,2.4642,2.4634,2.4635,2.4645,2.4661,2.4662,2.4664,2.468,2.4683,2.4686,0,0,0,0,0,0,2.4628,2.4627,2.4623,2.4636,2.4638,2.4637,2.4645,2.4639,2.4643,2.4642,2.4635,2.4635,2.4648,2.4647,2.4639,2.4661,2.465,2.4652,2.4661,2.4665,2.4667,2.4668,2.4625,0,0,0,0,0,2.4633,2.4639,2.4638,2.465,2.4651,2.4648,2.4651,2.4648,2.4649,2.465,2.4649,2.4651,2.4657,2.466,2.4665,2.468,2.4681,2.4688,2.4691,2.4693,2.4695,2.4705,2.4708,2.467,2.467,2.467,0,0,2.4642,2.4642,2.4647,2.4653,2.4654,2.4662,2.4649,2.4657,2.4662,2.4651,2.4662,2.4661,2.4663,2.4677,2.4682,2.4677,2.4706,2.4695,2.4697,2.4698,2.4707,2.471,2.4714,2.4671,2.467,2.467,0,0,2.4664,2.4664,2.4675,2.4677,2.4679,2.4677,2.468,2.468,2.4679,2.469,2.4682,2.4689,2.4698,2.47,2.4702,2.4726,2.472,2.4727,2.4742,2.4752,2.4755,2.4757,2.4767,2.4771,2.4729,2.4729,2.4729,0,2.4675,2.4686,2.4681,2.469,2.4694,2.4684,2.4696,2.4697,2.4701,2.4703,2.4697,2.4709,2.471,2.4724,2.473,2.4732,2.4735,2.4728,2.4755,2.4757,2.476,2.4769,2.4773,2.473,2.473,2.473,2.473,0,2.4701,2.4709,2.4718,2.4723,2.4726,2.4736,2.4733,2.4738,2.4734,2.4732,2.4744,2.4744,2.475,2.4752,2.4748,2.4767,2.4763,2.4756,2.4744,2.4765,2.4773,2.4777,2.4732,2.4731,2.4731,2.4731,0,0,2.4732,2.4734,2.4738,2.474,2.4743,2.4749,2.4758,2.4764,2.4769,2.4772,2.4781,2.4789,2.4783,2.4785,2.4781,2.4789,2.481,2.4781,2.4781,2.4787,2.4832,2.4839,2.4843,2.4805,2.4806,2.4806,2.4832,0,2.4754,2.4772,2.4768,2.4786,2.4793,2.4785,2.4794,2.4796,2.4795,2.4802,2.48,2.4807,2.4797,2.4799,2.4806,2.4806,2.4819,2.4803,2.4814,2.4814,2.4815,2.4847,2.4854,2.4879,2.4836,2.4836,2.4836,0,2.4783,2.4788,2.4807,2.4809,2.4812,2.482,2.4826,2.4832,2.4835,2.4834,2.4837,2.4832,2.4842,2.483,2.4844,2.4834,2.4838,2.4838,2.4839,2.4841,2.4828,2.4851,2.4886,2.4891,2.4841,2.4841,2.4841,0,2.4806,2.4817,2.483,2.4832,2.4835,2.4841,2.4842,2.4844,2.4848,2.4853,2.4856,2.4862,2.4865,2.487,2.4866,2.4858,2.4882,2.4869,2.4882,2.4882,2.4888,2.4888,2.4926,2.4889,2.4889,2.4889,2.4889,0,2.4832,2.4844,2.484,2.4848,2.4862,2.4857,2.487,2.4871,2.4873,2.4881,2.4873,2.4881,2.4875,2.4883,2.488,2.4893,2.4894,2.4894,2.4894,2.4896,2.4896,2.4899,2.4898,2.489,2.4889,2.4889,2.4889,0,2.486,2.4858,2.4872,2.4873,2.4874,2.4884,2.4885,2.4893,2.4891,2.4902,2.4904,2.4902,2.4911,2.4907,2.4916,2.4914,2.4932,2.4928,2.4931,2.4931,2.4944,2.4944,2.4987,2.4993,2.495,2.495,2.4951,0,2.4878,2.4887,2.489,2.4895,2.4897,2.4905,2.491,2.4906,2.4911,2.4915,2.4923,2.4931,2.4937,2.4951,2.495,2.4957,2.4954,2.4969,2.4955,2.4958,2.4957,2.4957,2.4958,2.4972,2.4973,2.4973,2.4973,0,2.491,2.4909,2.4916,2.4923,2.4929,2.4934,2.4939,2.4944,2.4939,2.4946,2.4955,2.496,2.4969,2.4978,2.4984,2.4985,2.4979,2.4978,2.4981,2.4984,2.4987,2.4987,2.494,2.4977,2.4976,2.4976,2.4976,2.4976,2.4934,2.4943,2.4947,2.4955,2.4958,2.4963,2.4971,2.4971,2.4979,2.4987,2.4983,2.4994,2.4997,2.5005,2.5007,2.5016,2.501,2.5015,2.5017,2.5018,2.5021,2.4984,2.5017,2.5017,2.5017,2.5017,2.5016,0,2.4968,2.497,2.4978,2.4985,2.4992,2.4986,2.4991,2.4997,2.5007,2.5011,2.5017,2.5028,2.5037,2.5037,2.5044,2.5051,2.5049,2.5054,2.5054,2.5055,2.5025,2.5022,2.5056,2.5056,2.5056,2.5056,2.5056,2.5056,2.4986,2.5001,2.5,2.5016,2.5018,2.5029,2.5033,2.5037,2.5041,2.5053,2.5061,2.5061,2.5063,2.5071,2.5079,2.5079,2.5083,2.5089,2.5088,2.506,2.5056,2.5053,2.505,2.5089,2.5089,2.5117,2.5117,2.5118]}]]